Regional Weather Roundup
Issued by NWS Albany, NY

Home | Current Version | Previous Version | Text Only | Print | Product List | Glossary On
Versions: 1 2 3 4 5 6 7 8 9 10 11 12 13 14 15 16 17 18 19 20 21 22 23 24 25 26 27 28 29 30 31 32 33 34 35 36 37 38 39 40 41 42 43 44 45 46 47 48 49 50
093
ASUS41 KALY 211610
RWRALY

NEW YORK STATE HOURLY WEATHER ROUNDUP
NATIONAL WEATHER SERVICE ALBANY NY
1200 PM EDT SAT OCT 21 2017

NOTE: "FAIR" INDICATES FEW OR NO CLOUDS BELOW 12,000 FEET WITH NO
SIGNIFICANT WEATHER AND/OR NO OBSTRUCTIONS TO VISIBILITY.

NYZ032-033-038>043-046>054-057>066-NYZ062>081-082-084-211700-
EAST


CITY           SKY/WX    TMP DP  RH WIND       PRES   REMARKS
ALBANY         MOSUNNY   64  41  42 S6        30.32F
GLENS FALLS    SUNNY     61  41  47 S6        30.29F
POUGHKEEPSIE   SUNNY     66  42  41 NW3       30.32F
NEWBURGH       SUNNY     70  45  40 W6        30.34F
MONTGOMERY     SUNNY     69  46  43 SW7       30.32F
WHITE PLAINS   SUNNY     75  38  26 NW3       30.33S
ISLIP          MOSUNNY   74  43  32 W5        30.33S
NEW YORK CITY  MOSUNNY   73  45  36 CALM      30.33S
CENTRAL PARK   SUNNY     72  36  26 W5        30.36S
$$

NYZ005>009-017-018-044>046-055-056-211700-
CENTRAL


CITY           SKY/WX    TMP DP  RH WIND       PRES   REMARKS
FULTON         CLOUDY    65  45  48 S7        30.30F
SYRACUSE       CLOUDY    65  46  50 CALM      30.30F
ROME           SUNNY     65  41  41 CALM      30.32F
ELMIRA         CLOUDY    59  45  59 CALM      30.33F
BINGHAMTON     SUNNY     64  39  39 VRB5      30.35S
MONTICELLO     SUNNY     67  38  34 W6        30.37S
$$

NYZ026>034-041>043-087-211700-
NORTH


CITY           SKY/WX    TMP DP  RH WIND       PRES   REMARKS
WATERTOWN      SUNNY     67  45  45 SW8       30.28S
FORT DRUM      NOT AVBL
OGDENSBURG     FAIR      69  51  52 SW9       30.25S
MASSENA        SUNNY     68  50  52 SW9       30.25F
SARANAC LAKE   SUNNY     64  41  42 W8        30.27F
PLATTSBURGH    SUNNY     62  46  55 SE10      30.23F
$$

NYZ001>004-010>016-019>021-085-211700-
WEST


CITY           SKY/WX    TMP DP  RH WIND       PRES   REMARKS
NIAGARA FALLS  CLOUDY    69  46  43 SW8       30.27F
BUFFALO        CLOUDY    69  43  38 SW8       30.28F
DUNKIRK        MOSUNNY   70  44  39 S9        30.29S
JAMESTOWN      SUNNY     60  43  53 S6        30.33F
WELLSVILLE     CLOUDY    69  34  27 SW9       30.36S
ROCHESTER      CLOUDY    66  43  43 SW10      30.29F
PENN YAN       CLOUDY    67  41  38 SW6       30.31F
$$

             KEY
       WCI = WIND CHILL INDEX
       VSB = VISIBILITY
       HX  = HEAT INDEX
$$




USA.gov is the U.S. government's official web portal to all federal, state and local government web resources and services.